Regional Weather Roundup
Issued by NWS

Home | Current Version | Previous Version | Graphics & Text | Print | Product List | Glossary On
Versions: 1 2 3 4 5 6 7 8 9 10 11 12 13 14 15 16 17 18 19 20 21 22 23 24 25 26 27 28 29 30 31 32 33 34 35 36 37 38 39 40 41 42 43 44 45 46 47 48 49 50
000
ASUS43 KFSD 242002
RWRSD

WEATHER ROUNDUP FOR SOUTH DAKOTA
NATIONAL WEATHER SERVICE SIOUX FALLS SD
200 PM CST SAT JAN 24 2015

NOTE: "FAIR" INDICATES FEW OR NO CLOUDS BELOW 12,000 FEET WITH NO
SIGNIFICANT WEATHER AND/OR OBSTRUCTIONS TO VISIBILITY.


SDZ001>005-009-010-012>017-242100-
NORTHWEST AND NORTH CENTRAL SOUTH DAKOTA

CITY           SKY/WX    TMP DP  RH WIND       PRES   REMARKS
BUFFALO          N/A     48  35  60 NW40G52   29.67R
FAITH            N/A     54  33  45 NW39G48   29.63F
MOBRIDGE       CLOUDY    48  37  65 NW15      29.54F
$$

SDZ012>016-024>037-041>051-057-063-072>074-242100-
SOUTHWEST AND SOUTH CENTRAL SOUTH DAKOTA

CITY           SKY/WX    TMP DP  RH WIND       PRES   REMARKS
RAPID CTY ARPT PTSUNNY   55  35  47 NW41G55   29.72F
PIERRE         CLOUDY    53  33  46 W20       29.61F
CUSTER         LGT RAIN  42  33  70 NW18G30   29.81F
PHILIP         LGT RAIN  51  38  60 W23G37    29.68F
PINE RIDGE     CLOUDY    48  30  49 W21G30    29.80F
WINNER         MOCLDY    55  33  43 W22G30    29.65F
$$

SDZ004>011-016>023-039-040-242100-
NORTHEAST SOUTH DAKOTA

CITY           SKY/WX    TMP DP  RH WIND       PRES   REMARKS
ABERDEEN       LGT RAIN  40  35  83 CALM      29.59F
WATERTOWN      CLOUDY    36  31  82 W6        29.58F
SISSETON         N/A     37  31  78 NW7       29.58F
$$

SDZ017-020-022-023-036>040-048>070-242100-
SOUTHEAST SOUTH DAKOTA

CITY           SKY/WX    TMP DP  RH WIND       PRES   REMARKS
SIOUX FALLS    CLOUDY    41  32  70 W9        29.63F
HURON          CLOUDY    46  36  68 W8        29.60F
MITCHELL       LGT RAIN  44  34  67 W9        29.64F
YANKTON        CLOUDY    48  32  53 W18G24    29.66F
$$

ABBREVIATIONS USED IN REMARKS
   TC - TEMPERATURE IN CELSIUS
  WCI - WIND CHILL INDEX
   HX - HEAT INDEX
  VSB - VISIBILITY




USA.gov is the U.S. government's official web portal to all federal, state and local government web resources and services.